Regional Weather Roundup
Issued by NWS

Home | Current Version | Previous Version | Text Only | Print | Product List | Glossary On
Versions: 1 2 3 4 5 6 7 8 9 10 11 12 13 14 15 16 17 18 19 20 21 22 23 24 25 26 27 28 29 30 31 32 33 34 35 36 37 38 39 40 41 42 43 44 45 46 47 48 49 50
000
ASUS43 KDTX 230401
RWRMI
MICHIGAN HOURLY REGIONAL WEATHER ROUNDUP
NATIONAL WEATHER SERVICE DETROIT/PONTIAC MI
1200 AM EDT THU MAR 23 2017

NOTE: "FAIR" INDICATES FEW OR NO CLOUDS BELOW 12,000 FEET WITH NO
SIGNIFICANT WEATHER AND/OR OBSTRUCTION TO VISIBILITY.

MIZ047>049-052>055-059>063-066>070-074>076-081>083-230500-
SOUTHEAST LOWER MICHIGAN

CITY           SKY/WX    TMP DP  RH WIND       PRES   REMARKS
ADRIAN         CLEAR     26  16  65 SE5       30.54S WCI  20
ALMA           CLEAR     25  16  67 SE7       30.52S WCI  18
ANN ARBOR      CLEAR     24  17  74 CALM      30.53F
BAD AXE        CLEAR     20  14  78 CALM      30.54S
CARO           CLEAR     20   8  60 CALM      30.53S
DETROIT CITY   CLEAR     24  17  74 E6        30.56F WCI  17
DETROIT        PTCLDY    27  16  63 E5        30.56S WCI  22
FLINT          CLEAR     22  11  62 E6        30.53F WCI  14
GROSSE ILE     CLEAR     25  17  69 E6        30.55S WCI  18
HILLSDALE      CLEAR     27  18  69 SE6       30.48S WCI  20
HOWELL         CLEAR     23  12  63 E3        30.52S

CITY           SKY/WX    TMP DP  RH WIND       PRES   REMARKS
JACKSON        CLEAR     27  12  53 SE6       30.50F WCI  20
LAMBERTVILLE   CLEAR     28  16  61 SE3       30.55R
LANSING        CLEAR     23  10  57 E5        30.52F WCI  17
LAPEER         FAIR      22  16  77 CALM      30.54S
MASON          CLEAR     27  16  62 E5        30.51S WCI  22
MONROE         CLOUDY    28  19  67 SE6       30.54S WCI  22
MT. CLEMENS    CLEAR     20  15  79 CALM      30.54F
PONTIAC        CLEAR     24  15  68 E7        30.52S WCI  16
PORT HOPE        N/A     21  13  71 S6        30.53S WCI  13
PORT HURON     CLEAR     16  12  86 CALM      30.56S
TRI CITIES     CLEAR     24  13  62 S7        30.53S WCI  16
MIDLAND        FAIR      27  11  50 S3        30.52S
TROY           CLEAR     26  15  63 E3        30.57S
SAGINAW HB     CLEAR     23  10  58 SE5       30.53S WCI  17
$$
MIZ043>046-050>051-056>058-064>065-071>073-077>080-230500-
SOUTHWEST LOWER MICHIGAN

CITY           SKY/WX    TMP DP  RH WIND       PRES   REMARKS
BATTLE CREEK   CLEAR     30  10  43 SE5       30.50S WCI  25
BENTON HARBOR  CLEAR     24  17  74 CALM      30.49F
BIG RAPIDS     CLEAR     24  15  69 CALM      30.49S
COLDWATER      CLEAR     27  15  58 CALM      30.50R
FREMONT        FAIR      25  16  68 NE3       30.50S
HOLLAND        CLEAR     26  17  68 NE3       30.51S
GRAND RAPIDS   CLEAR     27  11  51 SE5       30.50S WCI  22
IONIA          FAIR      26  12  54 E8        30.50S WCI  18
KALAMAZOO      CLEAR     29  11  47 E3        30.50S
LUDINGTON      CLEAR     20  17  88 CALM      30.51S
MARSHALL       CLEAR     26  11  52 CALM      30.50R
MOUNT PLEASANT CLEAR     26  11  53 CALM      30.51R
MUSKEGON       CLEAR     26  16  65 CALM      30.52R
SOUTH HAVEN    CLEAR     23  19  84 E3        30.50F
$$
MIZ016>042-230500-
NORTHERN LOWER MICHIGAN

CITY           SKY/WX    TMP DP  RH WIND       PRES   REMARKS
ALPENA         CLEAR     16  12  84 CALM      30.53F
BEAVER ISLAND  CLEAR     17  13  87 CALM      30.51S
BELLAIRE       CLEAR     18  13  82 CALM      30.53S
CADILLAC       CLEAR     19  10  68 CALM      30.46S
CHARLEVOIX     CLEAR     18  14  83 CALM      30.54F
FRANKFORT      CLEAR     19  14  80 CALM      30.52S
GAYLORD        CLEAR     21   9  59 CALM      30.47F
GRAYLING       CLEAR     17  10  75 CALM      30.50S
HARBOR SPRINGS CLEAR     18  14  85 CALM      30.51F
HOUGHTON LAKE  CLEAR     21  14  74 CALM      30.49S
MANISTEE       CLEAR     18  15  88 E3        30.51F
OSCODA         CLEAR     16  10  77 CALM      30.53S
PELLSTON       CLEAR     15   9  76 CALM      30.52S
ROGERS CITY    CLEAR     22  12  65 SW5       30.53F WCI  16
TRAVERSE CITY  CLEAR     20  12  71 CALM      30.52R
$$
MIZ007>008-015-230500-
EASTERN UPPER MICHIGAN

CITY           SKY/WX    TMP DP  RH WIND       PRES   REMARKS
KINROSS        CLOUDY    15  10  80 CALM      30.50F
MACKINAC ISLAN CLEAR     19  15  84 SW3       30.50S
NEWBERRY       CLEAR     21  19  90 CALM      30.48F
S. S. MARIE    CLOUDY    17   9  70 CALM      30.51S
MUNISING         N/A     25  14  63 S10       30.47F WCI  15
$$
MIZ004>006-011>014-085-230500-
CENTRAL UPPER MICHIGAN

CITY           SKY/WX    TMP DP  RH WIND       PRES   REMARKS
MANISTIQUE     CLEAR     18  16  93 CALM      30.49F
ESCANABA       CLEAR     23  18  81 CALM      30.50S
MENOMINEE        N/A    N/A N/A N/A MISG        N/A
SAWYER-GWINN   CLEAR     22  14  71 S9        30.44S WCI  11
$$
MIZ001>003-009>011-084-230500-
WESTERN UPPER MICHIGAN

CITY           SKY/WX    TMP DP  RH WIND       PRES   REMARKS
IRON MOUNTAIN  CLEAR     23  12  62 SE6       30.43S WCI  16
HOUGHTON       CLOUDY    23  16  74 E8        30.39F WCI  14
COPPER HARBOR    N/A     26  16  65 SW7       30.42F WCI  18
IRONWOOD       MOCLDY    30  10  43 S6        30.36F WCI  24
$$

ABBREVIATIONS USED IN REMARKS
   TC - TEMPERATURE IN CELSIUS
  WCI - WIND CHILL INDEX
   HX - HEAT INDEX
  VSB - VISIBILITY





USA.gov is the U.S. government's official web portal to all federal, state and local government web resources and services.